| time (UTC) | temp F | wind direction | speed MPH | gust MPH | rain 1hr in | rain 24hr in | rain mn in | humidity % | barometer mb |
| 20260507070003 | 54 | 186 | 0.0 | 0.0 | 0.00 | 0.21 | 0.00 | 96 | 1005.7 |
| 20260507064510 | 54 | 165 | 0.0 | 0.0 | 0.00 | 0.21 | 0.00 | 96 | 1005.6 |
| 20260507063006 | 54 | 176 | 0.0 | 0.0 | 0.00 | 0.21 | 0.00 | 96 | 1005.6 |
| 20260507061526 | 54 | 158 | 0.0 | 0.0 | 0.00 | 0.21 | 0.00 | 96 | 1006.0 |
| 20260507060021 | 54 | 222 | 0.0 | 0.0 | 0.00 | 0.21 | 0.00 | 96 | 1005.9 |
| 20260507054503 | 54 | 201 | 0.0 | 0.0 | 0.00 | 0.21 | 0.00 | 96 | 1006.2 |
| 20260507053006 | 54 | 179 | 0.0 | 0.0 | 0.00 | 0.21 | 0.00 | 96 | 1006.3 |
| 20260507051508 | 54 | 236 | 0.0 | 0.0 | 0.00 | 0.21 | 0.00 | 96 | 1006.5 |
| 20260507050027 | 54 | 184 | 0.0 | 0.0 | 0.00 | 0.21 | 0.00 | 96 | 1006.5 |
| 20260507044534 | 54 | 210 | 0.0 | 1.0 | 0.00 | 0.21 | 0.00 | 96 | 1006.4 |
| 20260507043020 | 54 | 217 | 0.0 | 3.0 | 0.00 | 0.21 | 0.00 | 96 | 1006.6 |
| 20260507041507 | 54 | 205 | 1.0 | 5.0 | 0.00 | 0.21 | 0.00 | 96 | 1006.4 |
| 20260507040011 | 54 | 184 | 0.0 | 3.0 | 0.00 | 0.21 | 0.00 | 96 | 1006.6 |
| 20260507034514 | 54 | 145 | 1.0 | 4.0 | 0.00 | 0.21 | 0.21 | 96 | 1006.7 |
| 20260507033020 | 54 | 101 | 1.0 | 8.0 | 0.00 | 0.21 | 0.21 | 96 | 1006.8 |
| 20260507031523 | 54 | 198 | 1.0 | 5.0 | 0.00 | 0.21 | 0.21 | 96 | 1006.5 |
| 20260507030011 | 54 | 210 | 0.0 | 5.0 | 0.00 | 0.21 | 0.21 | 96 | 1006.2 |
| 20260507024514 | 55 | 201 | 0.0 | 4.0 | 0.00 | 0.21 | 0.21 | 96 | 1006.1 |
| 20260507023017 | 55 | 192 | 1.0 | 6.0 | 0.00 | 0.21 | 0.21 | 96 | 1006.7 |
| 20260507021520 | 55 | 112 | 0.0 | 6.0 | 0.00 | 0.21 | 0.21 | 96 | 1006.9 |
| 20260507020024 | 55 | 243 | 0.0 | 3.0 | 0.00 | 0.21 | 0.21 | 96 | 1007.1 |
| 20260507014509 | 56 | 146 | 1.0 | 5.0 | 0.00 | 0.21 | 0.21 | 96 | 1007.2 |
| 20260507013017 | 56 | 218 | 1.0 | 5.0 | 0.00 | 0.21 | 0.21 | 95 | 1007.3 |
| 20260507011528 | 56 | 156 | 1.0 | 6.0 | 0.01 | 0.21 | 0.21 | 95 | 1007.4 |
| 20260507010023 | 56 | 290 | 1.0 | 7.0 | 0.03 | 0.21 | 0.21 | 96 | 1007.4 |
| 20260507004523 | 56 | 97 | 2.0 | 6.0 | 0.06 | 0.21 | 0.21 | 95 | 1007.4 |
| 20260507003012 | 56 | 200 | 1.0 | 7.0 | 0.16 | 0.21 | 0.21 | 95 | 1007.6 |
| 20260507001518 | 56 | 196 | 1.0 | 8.0 | 0.17 | 0.20 | 0.20 | 95 | 1007.5 |
| 20260507000026 | 56 | 243 | 1.0 | 8.0 | 0.16 | 0.18 | 0.18 | 95 | 1007.5 |
| 20260506234525 | 57 | 248 | 1.0 | 5.0 | 0.14 | 0.15 | 0.15 | 95 | 1007.5 |
| 20260506233026 | 57 | 89 | 2.0 | 10.0 | 0.05 | 0.05 | 0.05 | 94 | 1007.5 |
| 20260506231516 | 56 | 192 | 1.0 | 13.0 | 0.03 | 0.03 | 0.03 | 94 | 1007.6 |
| 20260506230020 | 56 | 201 | 3.0 | 8.0 | 0.02 | 0.02 | 0.02 | 92 | 1007.7 |
| 20260506224524 | 57 | 134 | 2.0 | 7.0 | 0.01 | 0.01 | 0.01 | 91 | 1007.8 |
| 20260506223026 | 58 | 123 | 3.0 | 11.0 | 0.00 | 0.00 | 0.00 | 88 | 1007.8 |
| 20260506221530 | 59 | 113 | 3.0 | 14.0 | 0.00 | 0.00 | 0.00 | 86 | 1008.0 |
| 20260506220019 | 59 | 238 | 2.0 | 11.0 | 0.00 | 0.00 | 0.00 | 86 | 1007.8 |
| 20260506214520 | 59 | 174 | 1.0 | 8.0 | 0.00 | 0.00 | 0.00 | 87 | 1007.8 |
| 20260506213023 | 58 | 167 | 1.0 | 8.0 | 0.00 | 0.00 | 0.00 | 88 | 1008.1 |
| 20260506211525 | 60 | 235 | 0.0 | 6.0 | 0.00 | 0.00 | 0.00 | 86 | 1008.4 |
| 20260506210028 | 61 | 176 | 2.0 | 5.0 | 0.00 | 0.00 | 0.00 | 82 | 1008.4 |
| 20260506204523 | 61 | 165 | 2.0 | 12.0 | 0.00 | 0.00 | 0.00 | 81 | 1008.4 |
| 20260506203003 | 60 | 240 | 2.0 | 11.0 | 0.00 | 0.00 | 0.00 | 82 | 1008.7 |
| 20260506201505 | 60 | 185 | 2.0 | 6.0 | 0.00 | 0.00 | 0.00 | 82 | 1008.8 |
| 20260506200009 | 60 | 96 | 3.0 | 8.0 | 0.00 | 0.00 | 0.00 | 81 | 1009.2 |
| 20260506194514 | 61 | 141 | 1.0 | 8.0 | 0.00 | 0.00 | 0.00 | 81 | 1009.1 |
| 20260506193017 | 61 | 191 | 3.0 | 7.0 | 0.00 | 0.00 | 0.00 | 80 | 1009.3 |
| 20260506191524 | 62 | 216 | 1.0 | 8.0 | 0.00 | 0.00 | 0.00 | 79 | 1009.3 |
| 20260506190007 | 62 | 219 | 2.0 | 8.0 | 0.00 | 0.00 | 0.00 | 79 | 1009.2 |
| 20260506184513 | 61 | 238 | 3.0 | 7.0 | 0.00 | 0.00 | 0.00 | 80 | 1009.7 |
| 20260506183018 | 62 | 212 | 2.0 | 10.0 | 0.00 | 0.00 | 0.00 | 79 | 1009.9 |
| 20260506181522 | 63 | 135 | 4.0 | 14.0 | 0.00 | 0.00 | 0.00 | 77 | 1010.2 |
| 20260506180026 | 64 | 278 | 4.0 | 19.0 | 0.00 | 0.00 | 0.00 | 75 | 1010.3 |
| 20260506174509 | 65 | 108 | 2.0 | 11.0 | 0.00 | 0.00 | 0.00 | 76 | 1010.6 |
| 20260506173012 | 64 | 122 | 3.0 | 11.0 | 0.00 | 0.00 | 0.00 | 78 | 1010.4 |
| 20260506171519 | 62 | 227 | 4.0 | 12.0 | 0.00 | 0.00 | 0.00 | 79 | 1010.7 |
| 20260506170023 | 62 | 229 | 4.0 | 12.0 | 0.00 | 0.00 | 0.00 | 78 | 1011.0 |
| 20260506161517 | 64 | 219 | 3.0 | 13.0 | 0.00 | 0.00 | 0.00 | 76 | 1011.5 |
| 20260506160023 | 65 | 252 | 5.0 | 11.0 | 0.00 | 0.00 | 0.00 | 75 | 1011.7 |
| 20260506141529 | 64 | 116 | 3.0 | 10.0 | 0.00 | 0.00 | 0.00 | 76 | 1011.7 |
| 20260506133024 | 63 | 130 | 2.0 | 10.0 | 0.00 | 0.00 | 0.00 | 80 | 1012.1 |
| 20260506131524 | 62 | 15 | 3.0 | 12.0 | 0.00 | 0.00 | 0.00 | 79 | 1011.9 |
| 20260506130028 | 62 | 148 | 3.0 | 9.0 | 0.00 | 0.00 | 0.00 | 80 | 1011.7 |
| 20260506124518 | 61 | 218 | 4.0 | 16.0 | 0.00 | 0.00 | 0.00 | 81 | 1011.8 |
| 20260506123023 | 61 | 145 | 3.0 | 12.0 | 0.00 | 0.00 | 0.00 | 81 | 1012.2 |
| 20260506121524 | 61 | 236 | 2.0 | 8.0 | 0.00 | 0.00 | 0.00 | 82 | 1012.2 |
| 20260506120031 | 60 | 162 | 0.0 | 8.0 | 0.00 | 0.00 | 0.00 | 84 | 1012.3 |
| 20260506114503 | 59 | 193 | 1.0 | 6.0 | 0.00 | 0.00 | 0.00 | 86 | 1012.5 |
| 20260506113004 | 58 | 227 | 2.0 | 7.0 | 0.00 | 0.00 | 0.00 | 86 | 1012.3 |
| 20260506111504 | 58 | 186 | 2.0 | 12.0 | 0.00 | 0.00 | 0.00 | 87 | 1012.4 |
| 20260506104506 | 56 | 236 | 1.0 | 7.0 | 0.00 | 0.00 | 0.00 | 89 | 1012.4 |
| 20260506103008 | 56 | 181 | 2.0 | 7.0 | 0.00 | 0.00 | 0.00 | 89 | 1012.2 |
| 20260506101506 | 56 | 158 | 2.0 | 7.0 | 0.00 | 0.00 | 0.00 | 90 | 1012.1 |
| 20260506100005 | 55 | 211 | 2.0 | 13.0 | 0.00 | 0.00 | 0.00 | 90 | 1012.3 |
| 20260506094506 | 55 | 173 | 1.0 | 6.0 | 0.00 | 0.00 | 0.00 | 90 | 1012.2 |
| 20260506093013 | 56 | 188 | 1.0 | 9.0 | 0.00 | 0.00 | 0.00 | 90 | 1012.1 |
| 20260506091508 | 56 | 194 | 2.0 | 9.0 | 0.00 | 0.00 | 0.00 | 90 | 1012.1 |
| 20260506090011 | 56 | 248 | 1.0 | 8.0 | 0.00 | 0.00 | 0.00 | 90 | 1012.2 |
| 20260506083009 | 56 | 125 | 1.0 | 6.0 | 0.00 | 0.00 | 0.00 | 90 | 1012.2 |
| 20260506081512 | 56 | 229 | 2.0 | 7.0 | 0.00 | 0.00 | 0.00 | 90 | 1012.3 |
| 20260506073011 | 55 | 168 | 2.0 | 7.0 | 0.00 | 0.00 | 0.00 | 90 | 1012.6 |
| 20260506071514 | 55 | 212 | 1.0 | 4.0 | 0.00 | 0.00 | 0.00 | 90 | 1012.5 |